TimeHST,TemperatureF,Dew PointF,Humidity,Sea Level PressureIn,VisibilityMPH,Wind Direction,Wind SpeedMPH,Gust SpeedMPH,PrecipitationIn,Events,Conditions,WindDirDegrees,DateUTC
12:54 AM,73.0,63.0,71,29.99,10.0,ENE,15.0,24.2,N/A,,Clear,70,2012-12-09 10:54:00
1:54 AM,73.0,63.0,71,29.98,10.0,East,11.5,20.7,N/A,,Partly Cloudy,80,2012-12-09 11:54:00
2:54 AM,73.0,66.0,79,29.95,10.0,ENE,18.4,24.2,N/A,,Clear,60,2012-12-09 12:54:00
3:54 AM,73.0,64.0,73,29.95,10.0,East,12.7,21.9,N/A,,Clear,80,2012-12-09 13:54:00
4:54 AM,72.0,64.0,76,29.94,10.0,ENE,12.7,17.3,N/A,,Clear,70,2012-12-09 14:54:00
5:54 AM,66.0,59.0,78,29.96,10.0,South,5.8,-,N/A,,Clear,190,2012-12-09 15:54:00
6:54 AM,64.9,59.0,81,29.98,10.0,Calm,Calm,-,N/A,,Scattered Clouds,0,2012-12-09 16:54:00
7:54 AM,72.0,63.0,73,29.97,10.0,ENE,11.5,20.7,N/A,,Scattered Clouds,60,2012-12-09 17:54:00
8:54 AM,75.9,62.1,62,29.98,10.0,East,8.1,-,N/A,,Scattered Clouds,90,2012-12-09 18:54:00
9:54 AM,79.0,63.0,58,29.96,10.0,Variable,5.8,-,0.01,,Scattered Clouds,0,2012-12-09 19:54:00
10:54 AM,81.0,64.9,58,29.94,10.0,ENE,15.0,26.5,N/A,,Partly Cloudy,60,2012-12-09 20:54:00
11:54 AM,81.0,66.0,60,29.92,10.0,ENE,19.6,31.1,N/A,,Scattered Clouds,70,2012-12-09 21:54:00
12:54 PM,81.0,66.0,60,29.89,10.0,ENE,19.6,28.8,N/A,,Partly Cloudy,70,2012-12-09 22:54:00
1:54 PM,82.0,66.0,58,29.87,10.0,ENE,18.4,27.6,N/A,,Scattered Clouds,70,2012-12-09 23:54:00
2:54 PM,80.1,64.0,58,29.88,10.0,East,13.8,27.6,N/A,,Scattered Clouds,80,2012-12-10 00:54:00
3:54 PM,79.0,64.0,60,29.88,10.0,ENE,20.7,32.2,N/A,,Scattered Clouds,70,2012-12-10 01:54:00
4:54 PM,78.1,64.0,62,29.90,10.0,ENE,18.4,27.6,N/A,,Scattered Clouds,70,2012-12-10 02:54:00
5:54 PM,75.9,64.0,67,29.92,10.0,ENE,18.4,26.5,N/A,,Scattered Clouds,70,2012-12-10 03:54:00
6:54 PM,75.9,64.0,67,29.95,10.0,East,11.5,-,N/A,,Mostly Cloudy,90,2012-12-10 04:54:00
7:54 PM,75.0,63.0,66,29.97,10.0,East,13.8,18.4,N/A,,Partly Cloudy,90,2012-12-10 05:54:00
8:54 PM,73.9,64.9,73,29.97,10.0,ENE,16.1,23.0,N/A,,Clear,60,2012-12-10 06:54:00
9:54 PM,73.0,64.0,73,29.99,10.0,East,8.1,-,N/A,,Partly Cloudy,90,2012-12-10 07:54:00
10:54 PM,70.0,64.0,81,30.01,10.0,Calm,Calm,-,N/A,,Clear,0,2012-12-10 08:54:00
11:54 PM,68.0,63.0,84,30.01,10.0,Variable,3.5,-,N/A,,Scattered Clouds,0,2012-12-10 09:54:00